Orbital Elements
by Kenji Muraoka,
from 166 observations 1980 May 6 to 1996 Apr. 20,
mean residual is +/- 1.01 arc seconds.
Epoch = 1995 Dec. 29.0 TT JDT = 2450080.5
T = 1995 Dec. 25.98453 +/- 0.00015 (m.e.) TT
Peri. = 326.05346 +/- 0.00033
Node = 89.15594 +/- 0.00041 (2000.0)
Incl. = 4.24839 +/- 0.00022
q = 0.5320516 +/- 0.0000003 AU
e = 0.8242401 +/- 0.0000001
a = 3.0271502 +/- 0.0000007 AU
n = 0.18713418 +/- 0.00000006
P = 5.267 +/- 0.0000018 years
A1 = +0.064 +/- 0.007
A2 = -0.05809 +/- 0.00029
|